AirNav   Duncan Aviation - Near you to keep you flying
 
 731 users online  

KMMU Morristown Municipal Airport
Morristown, New Jersey, USA

GOING TO MORRISTOWN?


FAA INFORMATION EFFECTIVE 21 APRIL 2022

Location

FAA Identifier: MMU
Lat/Long: 40-47-57.6180N 074-24-53.5990W
40-47.960300N 074-24.893317W
40.7993383,-74.4148886
(estimated)
Elevation: 186.6 ft. / 56.9 m (surveyed)
Variation: 13W (2005)
From city: 3 miles E of MORRISTOWN, NJ
Time zone: UTC -4 (UTC -5 during Standard Time)
Zip code: 07960

Airport Operations

Airport use: Open to the public
Activation date: 05/1943
Control tower: yes
ARTCC: NEW YORK CENTER
FSS: MILLVILLE FLIGHT SERVICE STATION
NOTAMs facility: MMU (NOTAM-D service available)
Attendance: 0645-2230
Pattern altitude: TPA 1013 LIGHT ACFT, 1513 HEAVY ACFT.
Wind indicator: lighted
Segmented circle: yes
Lights: DUSK-DAWN; ACTVT HIRL RWY 05/23, MIRL RW 13/31, REIL RWY 05 & 31, MALSR RWY 23 & PAPI RWY 31 - CTAF.
Beacon: white-green (lighted land airport)
Operates sunset to sunrise.
Landing fee: yes
International operations: international airport of entry
US CUSTOMS USER FEE ARPT.
US CUSTOMS USER FEE ARPT.

Airport Communications

CTAF: 118.1
ATIS: 124.25
WX AWOS-3: PHONE 973-290-0135
MORRISTOWN GROUND: 134.2 [0645-2230]
MORRISTOWN TOWER: 118.1 353.9 [0645-2230]
NEW YORK APPROACH: 127.6
NEW YORK DEPARTURE: 119.2
CLEARANCE DELIVERY: 128.6
EMERG: 121.5 243.0
WX ASOS at CDW (8 nm NE): 135.5 (973-575-4417)
WX ASOS at EWR (13 nm SE): PHONE 973-621-2892
WX AWOS-3 at LDJ (13 nm SE): 124.025 (908-862-7383)
WX ASOS at SMQ (16 nm SW): 120.6 (908-722-2139)
WX ASOS at TEB (16 nm E): PHONE 201-393-0855
WX ASOS at 12N (19 nm NW): PHONE 917-786-7221
WX AWOS-3PT at JRB (19 nm E): 128.175 (212-425-1534)
  • CALL 516-542-3690 WHEN TWR CLSD.

Nearby radio navigation aids

VOR radial/distance  VOR name  Freq  Var
TEBr271/16.3TETERBORO VOR/DME108.4011W
SAXr172/17.0SPARTA VORTAC115.7011W
BWZr101/18.5BROADWAY VOR/DME114.2011W
SBJr059/19.7SOLBERG VOR/DME112.9010W
STWr131/23.7STILLWATER VOR/DME109.6011W
LGAr284/24.8LA GUARDIA VOR/DME113.1012W
CRIr306/26.2CANARSIE VOR/DME112.3011W
JFKr301/30.9KENNEDY VOR/DME115.9012W
COLr349/31.5COLTS NECK VOR/DME115.4011W
RBVr016/36.0ROBBINSVILLE VORTAC113.8010W
HUOr179/37.5HUGUENOT VOR/DME116.1011W
ARDr044/39.7YARDLEY VOR/DME108.2010W

 
NDB name  Hdg/Dist  Freq  Var  ID
CHATHAM024/3.625413WCAT -.-. .- -
TORBY281/12.821412WTE - .

Airport Services

Fuel available: 100LL JET-A JET-A+
A:O-128 AVOIL AVBL.
Oil available: WHEN TWR CLSD ALL ACFT AND VEHICLES MUST STATE INTNS ON CTAF BFR OPS ON ANY RWY.
Parking: hangars and tiedowns
Airframe service: NONE
Powerplant service: NONE
Bottled oxygen: HIGH/LOW
Bulk oxygen: HIGH/LOW

Runway Information

Runway 5/23

Dimensions: 5998 x 150 ft. / 1828 x 46 m
Surface: asphalt/grooved, in good condition
Weight bearing capacity: 
PCN 25 /F/C/X/T
Single wheel: 30.0
Double wheel: 80.0
Runway edge lights: high intensity
RUNWAY 5  RUNWAY 23
Latitude: 40-47.586242N40-48.384327N
Longitude: 074-25.154512W074-24.388465W
Elevation: 181.8 ft.182.8 ft.
Traffic pattern: leftleft
Runway heading: 049 magnetic, 036 true229 magnetic, 216 true
Markings: precision, in good conditionprecision, in good condition
Approach lights: MALSR: 1,400 foot medium intensity approach lighting system with runway alignment indicator lights
Runway end identifier lights: yes
Touchdown point: yes, no lightsyes, no lights
Instrument approach: ILS
Obstructions: 102 ft. trees, 2100 ft. from runway, 18:1 slope to clearnone

Runway 13/31

Dimensions: 3997 x 150 ft. / 1218 x 46 m
Surface: asphalt/grooved, in good condition
Weight bearing capacity: 
PCN 11 /F/C/X/T
Single wheel: 30.0
Runway edge lights: medium intensity
RUNWAY 13  RUNWAY 31
Latitude: 40-48.056303N40-47.789262N
Longitude: 074-25.471980W074-24.680185W
Elevation: 186.5 ft.181.3 ft.
Traffic pattern: leftleft
Runway heading: 127 magnetic, 114 true307 magnetic, 294 true
Markings: basic, in good conditionbasic, in good condition
Visual slope indicator: 2-light PAPI on left (3.50 degrees glide path)
Runway end identifier lights: yes
Touchdown point: yes, no lightsyes, no lights
Obstructions: 49 ft. trees, 320 ft. from runway, 240 ft. right of centerline, 2:1 slope to clear91 ft. trees, 1690 ft. from runway, 330 ft. left of centerline, 16:1 slope to clear

Airport Ownership and Management from official FAA records

Ownership: Publicly-owned
Owner: TOWN OF MORRISTOWN
110 SOUTH STREET
MORRISTOWN, NJ 07960
Phone 973-292-6626
Manager: SCOTT MCMAHON
DM AIRPORTS, LTD., 8 AIRPORT ROAD
MORRISTOWN, NJ 07960
Phone 973-538-6400

Airport Operational Statistics

Aircraft based on the field: 128
Single engine airplanes: 53
Multi engine airplanes: 13
Jet airplanes: 60
Helicopters: 2
    
Aircraft operations: avg 210/day *
47% transient general aviation
43% local general aviation
11% air taxi
<1% military
* for 12-month period ending 31 August 2020

Additional Remarks

BIRDS & DEER ON & INVOF ARPT.
ARFF SVCS AVBL 24 HRS DAILY. FOR ARFF SVCS WHEN ATCT CLSD CTC ARFF STATION; CTAF OR 973-455-1953.
ALL ARRIVAL/DEPARTURE ACFT FOLLOW MANUFACTURERS RECOMMENDED PROCEDURES FOR QUIET OPNS & MINIMUM NOISE.
ROUTE 80 VISUAL APCH PREFERRED FOR RY 23.
HELICOPTER OPNS OVER RESIDENTIAL AREAS BLO 1000 FT MSL SHOULD BE AVOIDED.
STAGE I DEPARTURE FEE 2300-0645.
DURG SNOW REMOVAL OPNS 15 MINUTE PRIOR NOTICE REQUIRED ON 118.1 & NO PRACTICE LOW APCHS OR TOUCH & GO LDGS.
INBOUND TFC REQUEST FBO SVCS, INSTRUCTIONS & RAMP ADVISORIES 30 MINUTES PRIOR TO ARRIVAL. AFTER LDG CTC FBO AGAIN 129.6 FOR PREFERRED RAMP ENTRANCE TO DELTA OR JULIET TWYS.
TAXILANE K N OF LYNX FBO RAMP, NO HEL OR ACFT WITH A WINGSPAN GTR THAN 50 FT.
VOLUNTARY NOISE ABATEMENT PROC INCLUDE AVOIDING TGL OPS ON RWY 13-31.
NOISE ABATEMENT PROC IN EFCT; CTC NOISE ABATEMENT OFFICE 973-538-3366 EXTN 122.
FOR CD WHEN ATCT IS CLSD CTC NEW YORK APCH AT 800-645-3206.
NO TGL ON RWY 13/31 UNLESS THE CROSSWIND VLCTY FOR RWY 05/23 EXCEEDS 10 KTS.
US CUSTOMS AVBL MON-FRI 0800-1600; BTN 1601-0759 & WKENDS CALL 973-267-0302 FOR APPOINTMENT. MORRISTOWN CUSTOMS ASSOCIATION FEES APPLY; CTC AMGR 973-538-6400 FOR DETAILS.
NO TURBOJET LNDG ON RWY 13 & 31 UNLESS THE X-WIND VELOCITY FOR RWY 5/23 EXCEEDS 16 KNOTS.
ACFT CARRYING EXPLOSIVE CARGO PPR BEFORE LDG - CALL 973-538-6400.
FLIGHT NOTIFICATION SVC (ADCUS) AVBL.
U.S. CUSTOMS USER FEE ARPT.

Instrument Procedures

NOTE: All procedures below are presented as PDF files. If you need a reader for these files, you should download the free Adobe Reader.

NOT FOR NAVIGATION. Please procure official charts for flight.
FAA instrument procedures published for use from 21 April 2022 at 0901Z to 19 May 2022 at 0900z.

 
STARs - Standard Terminal Arrivals
JAIKE THREE (RNAV)   download (230KB)
MAZIE THREE (RNAV)   download (201KB)
WILKES-BARRE FOUR   download (217KB)
 
IAPs - Instrument Approach Procedures
ILS OR LOC RWY 23   download (258KB)
RNAV (RNP) Y RWY 23   download (266KB)
RNAV (GPS) RWY 05   download (231KB)
RNAV (GPS) Z RWY 23   download (235KB)
ROUTE 80 VISUAL RWY 23   download (221KB)
NOTE: Special Alternate Minimums apply   download (106KB)
 
Departure Procedures
MORRISTOWN SEVEN   2 pages: [1] [2] (631KB)
NOTE: Special Take-Off Minimums/Departure Procedures apply   download (530KB)

Other nearby airports with instrument procedures:

KCDW - Essex County Airport (8 nm NE)
N07 - Lincoln Park Airport (10 nm NE)
KEWR - Newark Liberty International Airport (13 nm SE)
KLDJ - Linden Airport (13 nm SE)
KSMQ - Somerset Airport (16 nm SW)
KTEB - Teterboro Airport (16 nm E)
47N - Central Jersey Regional Airport (18 nm SW)
KJRA - West 30th St Heliport (19 nm E)
12N - Aeroflex-Andover Airport (19 nm NW)
KJRB - Downtown Manhattan/Wall Street Heliport (19 nm E)
 
Loc | Ops | Rwys | IFR | FBO | Links
Com | Nav | Svcs | Stats | Notes
Area around KMMU (Morristown Municipal Airport)
 
Road maps at: MapQuest Bing Google
 
Aerial photo
WARNING: Photo may not be current or correct
Aerial photo of KMMU (Morristown Municipal Airport)
Photo taken 19-Dec-2019
looking east.

Do you have a better or more recent aerial photo of Morristown Municipal Airport that you would like to share? If so, please send us your photo.

 
Sectional chart

 
Airport diagram
CAUTION: Diagram may not be current
Diagram of KMMU (Morristown Municipal Airport)
Download PDF
of official airport diagram from the FAA

 
Airport distance calculator
Flying to Morristown Municipal Airport? Find the distance to fly.

From to KMMU

Sunrise and sunset
Times for 16-May-2022
 Local
(UTC-4)
 Zulu
(UTC)
Morning civil twilight05:0909:09
Sunrise05:4009:40
Sunset20:0800:08
Evening civil twilight20:3900:39

Current date and time
Zulu (UTC)  16-May-2022 11:50:08
Local (UTC-4)  16-May-2022 07:50:08
 
METAR
KMMU 161046Z 00000KT 10SM SCT130 18/18 A2975
KCDW 
8nm NE 
161053Z 00000KT 10SM CLR 21/18 A2974 RMK AO2 SLP076 T02060178
KEWR 
13nm SE 
161051Z 13004KT 10SM SCT110 BKN140 21/18 A2973 RMK AO2 SLP067 T02060178
KLDJ 
13nm SE 
161135Z AUTO 19004KT 10SM SCT120 20/18 A2974 RMK AO2 T02040179
KSMQ 
16nm SW 
ASOS 120.60 908-722-2139
161127Z AUTO 19003KT 5SM BR OVC014 18/18 A2972 RMK AO2 T01830183
KTEB 
17nm E 
161051Z 18003KT 10SM CLR 19/18 A2972 RMK AO2 SLP065 T01940183
KJRB 
19nm E 
161056Z AUTO 00000KT 10SM 19/17 A2975 RMK AO2 SLPNO T01890172
K12N 
19nm NW 
161054Z AUTO 00000KT 18/17 A2974 RMK AO1 SLP065 T01830172
TAF
KEWR 
13nm SE 
160800Z 1608/1712 21005KT P6SM FEW050 SCT120 FM161000 20006KT P6SM SCT015 SCT120 TEMPO 1611/1613 6SM HZ BKN015 FM161500 19007KT P6SM SCT030 SCT050 SCT150 FM162000 16012KT P6SM SCT015 BKN040 PROB30 1621/1624 28025G45KT 2SM TSRA BKN015CB OVC040 FM170000 24010KT P6SM VCSH SCT015 BKN040 FM170300 28012G19KT P6SM SCT040 BKN250 FM170800 25007KT P6SM FEW040 SCT250
KTEB 
17nm E 
160800Z 1608/1712 VRB03KT P6SM SCT120 FM161000 18004KT P6SM SCT010 SCT120 TEMPO 1611/1613 4SM BR BKN010 FM161500 17009KT P6SM SCT030 SCT050 SCT150 FM162000 17011KT P6SM SCT015 BKN040 PROB30 1621/1624 28025G45KT 2SM TSRA BKN015CB OVC040 FM170000 22006KT P6SM VCSH SCT015 BKN040 FM170300 29011G18KT P6SM SCT040 BKN250 FM170800 26006KT P6SM FEW040 SCT250
NOTAMs
Click for the latest NOTAMs
NOTAMs are issued by the DoD/FAA and will open in a separate window not controlled by AirNav.

 

 
 

FBO, Fuel Providers, and Aircraft Ground Support

  
 Business Name 
 
 Contact 
 
 Services / Description 
 
Fuel Prices
 
Comments
  
Atlantic Aviation ASRI 131.575
973-401-1900
[web site]
[email]
Aviation fuel, Hangar leasing / sales, Passenger terminal and lounge, Pilots lounge / snooze room, Computerized weather, Internet access, Restrooms
More info and photos of Atlantic Aviation
 
NATA Safety 1st   U.S. Government Contract Fuel   U.S. Government AIR Card   U.S. Customs Service   WSI Pilotbrief   Titan Contract Fuel   Titan Rewards   Contract Fuel   Crew car   Courtesy transportation   Go Rentals   Wireless Internet Access (WiFi)   Wheelchair Accessible   National Business Aviation Association  
 
independent
100LL Jet A
FS $7.88 $10.70 
GUARANTEED
 
   3 read write
Signature Flight Support 973-292-1300
[web site]
[email]
Aviation fuel, Oxygen service, Aircraft parking (ramp or tiedown), Hangars, Hangar leasing / sales, GPU / Power cart, Passenger terminal and lounge, ...

More info about Signature Flight Support
independent
100LL Jet A
FS $8.09 $10.37 
 Updated 13-May-2022
 
   1 read write
FS=Full service
Update Fuel Prices
 

Would you like to see your business listed on this page?

 If your business provides an interesting product or service to pilots, flight crews, aircraft, or users of the Morristown Municipal Airport, you should consider listing it here.  To start the listing process, click on the button below
 
Add a business
 

Other Pages about Morristown Municipal Airport

www.mmuair.com
 
Update a link
 
Copyright © AirNav, LLC. All rights reserved. Privacy Policy  Contact